Hourly Data Report for July 15, 2021

BORDEN AWOS
ONTARIO
Current Station Operator: DND

44°16'20.000" N
79°54'42.000" W
222.50 m
611B002
71534
YBN

Download Data

Hourly Data (July 2021)
Hourly Data Report for July 15, 2021
TIME
LST
Temp Definition
°C
Dew Point Definition
°C
Rel Hum Definition
%
Precip. Amount Definition
mm

Wind Dir Definition
10's deg

Wind Spd Definition
km/h
Visibility Definition
km
Stn Press Definition
kPa
Hmdx Definition


Wind Chill Definition


Weather Definition


00:00 18.3 17.0 92   22 7 14.5 99.21     LegendNANA
01:00 18.5 17.4 93   19 7 14.5 99.12     LegendNANA
02:00 18.1 17.3 95   19 6 14.5 99.16     LegendNANA
03:00 17.4 17.2 99   17 6 12.9 99.11     LegendNANA
04:00 18.0 17.4 96   15 4 14.5 99.06     LegendNANA
05:00 17.5 16.9 96   14 6 14.5 99.02     LegendNANA
06:00 19.8 18.9 95   15 7 14.5 98.98     LegendNANA
07:00 21.9 19.7 87   17 9 14.5 98.96 29   LegendNANA
08:00 23.1 19.8 82   17 17 14.5 98.89 31   LegendNANA
09:00 25.8 20.1 71   16 20 14.5 98.79 33   LegendNANA
10:00 25.9 19.8 69   20 20 14.5 98.75 33   LegendNANA
11:00 26.3 20.1 69   18 30 14.5 98.71 34   LegendNANA
12:00 27.6 20.5 65   19 28 14.5 98.60 36   LegendNANA
13:00 25.3 21.2 78   17 26 14.5 98.43 34   Rain
14:00 24.2 22.4 90   26 7 14.5 98.48 34   Rain
15:00 24.4 22.0 87   26 13 14.5 98.42 34   Rain
16:00 24.9 22.6 87   23 9 14.5 98.39 35   LegendNANA
17:00 25.1 20.5 76   25 26 14.5 98.41 33   LegendNANA
18:00 23.4 20.6 84   25 22 14.5 98.41 31   Rain
19:00 21.9 18.7 82   29 17 14.5 98.54 28   LegendNANA
20:00 20.6 17.5 82   28 7 14.5 98.58 26   LegendNANA
21:00 20.2 17.2 83   31 7 14.5 98.66 26   LegendNANA
22:00 19.7 17.1 85   28 9 14.5 98.71     LegendNANA
23:00 19.5 16.7 84   31 11 14.5 98.76     LegendNANA

Notes on Data Quality.

Legend

  • E = Estimated
  • M = Missing
  • NA = Not Available*
  • [empty] = Indicates an unobserved value
Date modified: